Torna al catalogo

STARLINK-4490

AttivoComunicazioniVLEO
NORAD 53409·PAYLOAD·🇺🇸 United States

Lanciato Aug 10, 2022 da Cape Canaveral Space Force Station

Loading…

Prossimi Passaggi (prossime 24 ore)

TLE

AggiornatoSource: CelesTrak SupGP

Epoca: Sep 14, 2026, 20:58 UTC

1 53409C 22097X   26257.87409722 -.00030669  00000+0 -90631-3 0  2576
2 53409  53.1581 320.3622 0001322  83.9536 206.5634 15.34398916    12

Traccia STARLINK-4490 in tempo reale con AllMySat

Download on the App Store